| time (UTC) | temp C | wind direction | speed KPH | gust KPH | rain 1hr cm | rain 24hr cm | rain mn cm | humidity % | barometer mb |
| 20260904215350 | 12 | 261 | 0.0 | 1.6 | 0.00 | 1.09 | 0.28 | 88 | 1019.3 |
| 20260904214839 | 12 | 228 | 0.0 | 3.2 | 0.00 | 1.09 | 0.28 | 88 | 1019.3 |
| 20260904214320 | 12 | 266 | 0.0 | 3.2 | 0.00 | 1.09 | 0.28 | 87 | 1019.3 |
| 20260904213829 | 12 | 250 | 0.0 | 3.2 | 0.00 | 1.09 | 0.28 | 87 | 1019.3 |
| 20260904213331 | 13 | 236 | 0.0 | 3.2 | 0.00 | 1.09 | 0.28 | 87 | 1019.3 |
| 20260904212811 | 13 | 226 | 0.0 | 1.6 | 0.00 | 1.09 | 0.28 | 87 | 1019.2 |
| 20260904212313 | 13 | 229 | 0.0 | 1.6 | 0.00 | 1.09 | 0.28 | 86 | 1019.3 |
| 20260904211822 | 13 | 249 | 0.0 | 1.6 | 0.00 | 1.09 | 0.28 | 86 | 1019.3 |
| 20260904211324 | 13 | 249 | 0.0 | 1.6 | 0.00 | 1.09 | 0.28 | 86 | 1019.2 |
| 20260904210826 | 13 | 249 | 0.0 | 1.6 | 0.00 | 1.09 | 0.28 | 86 | 1019.2 |
| 20260904210316 | 13 | 260 | 0.0 | 1.6 | 0.00 | 1.09 | 0.28 | 85 | 1019.1 |
| 20260904205816 | 13 | 296 | 0.0 | 1.6 | 0.00 | 1.09 | 0.28 | 85 | 1019.1 |
| 20260904205318 | 13 | 296 | 0.0 | 3.2 | 0.00 | 1.09 | 0.28 | 85 | 1019.1 |
| 20260904204827 | 13 | 272 | 0.0 | 3.2 | 0.00 | 1.09 | 0.28 | 85 | 1019.0 |
| 20260904204329 | 13 | 281 | 0.0 | 3.2 | 0.00 | 1.09 | 0.28 | 85 | 1018.9 |
| 20260904203811 | 13 | 201 | 0.0 | 1.6 | 0.00 | 1.09 | 0.28 | 85 | 1019.0 |
| 20260904203322 | 13 | 320 | 0.0 | 1.6 | 0.00 | 1.09 | 0.28 | 84 | 1019.1 |
| 20260904202829 | 13 | 290 | 0.0 | 1.6 | 0.00 | 1.09 | 0.28 | 84 | 1019.0 |
| 20260904202311 | 13 | 291 | 0.0 | 1.6 | 0.00 | 1.09 | 0.28 | 84 | 1019.0 |
| 20260904201813 | 13 | 274 | 0.0 | 1.6 | 0.00 | 1.09 | 0.28 | 83 | 1018.9 |
| 20260904201321 | 14 | 278 | 0.0 | 3.2 | 0.00 | 1.09 | 0.28 | 83 | 1018.9 |
| 20260904200823 | 14 | 253 | 0.0 | 3.2 | 0.00 | 1.09 | 0.28 | 83 | 1018.8 |
| 20260904200312 | 14 | 328 | 0.0 | 3.2 | 0.00 | 1.09 | 0.28 | 82 | 1018.8 |
| 20260904195813 | 14 | 324 | 0.0 | 6.4 | 0.00 | 1.09 | 0.28 | 82 | 1018.8 |
| 20260904195322 | 14 | 318 | 0.0 | 6.4 | 0.00 | 1.09 | 0.28 | 81 | 1018.8 |
| 20260904194824 | 14 | 319 | 0.0 | 3.2 | 0.00 | 1.09 | 0.28 | 81 | 1018.7 |
| 20260904194325 | 15 | 326 | 0.0 | 3.2 | 0.00 | 1.09 | 0.28 | 80 | 1018.7 |
| 20260904193835 | 15 | 338 | 0.0 | 6.4 | 0.00 | 1.09 | 0.28 | 80 | 1018.6 |
| 20260904193317 | 15 | 272 | 0.0 | 6.4 | 0.00 | 1.09 | 0.28 | 79 | 1018.5 |
| 20260904192818 | 15 | 316 | 0.0 | 3.2 | 0.00 | 1.09 | 0.28 | 78 | 1018.4 |
| 20260904192327 | 15 | 334 | 0.0 | 4.8 | 0.00 | 1.09 | 0.28 | 77 | 1018.3 |
| 20260904191816 | 15 | 193 | 0.0 | 8.0 | 0.00 | 1.09 | 0.28 | 77 | 1018.3 |
| 20260904191318 | 15 | 229 | 1.6 | 6.4 | 0.00 | 1.09 | 0.28 | 77 | 1018.2 |
| 20260904190847 | 15 | 289 | 1.6 | 8.0 | 0.00 | 1.09 | 0.28 | 77 | 1018.1 |
| 20260904190329 | 15 | 359 | 3.2 | 8.0 | 0.00 | 1.09 | 0.28 | 76 | 1018.0 |
| 20260904185835 | 15 | 253 | 3.2 | 9.7 | 0.00 | 1.09 | 0.28 | 76 | 1017.8 |
| 20260904185338 | 16 | 332 | 3.2 | 9.7 | 0.00 | 1.09 | 0.28 | 76 | 1017.8 |
| 20260904184846 | 16 | 271 | 3.2 | 9.7 | 0.00 | 1.09 | 0.28 | 76 | 1017.7 |
| 20260904184326 | 16 | 215 | 3.2 | 14.5 | 0.00 | 1.09 | 0.28 | 76 | 1017.6 |